Weather Service Report


976 
ASUS43 KBIS 261102
RWRND 

NORTH DAKOTA REGIONAL WEATHER ROUNDUP
NATIONAL WEATHER SERVICE BISMARCK ND
600 AM CDT TUE JUL 26 2016

NOTE: "FAIR" INDICATES FEW OR NO CLOUDS BELOW 12,000 FEET WITH NO
SIGNIFICANT WEATHER AND/OR OBSTRUCTIONS TO VISIBILITY.


NDZ001>003-009>011-017-261200-
NORTHWEST NORTH DAKOTA
  
CITY           SKY/WX    TMP DP  RH WIND       PRES   REMARKS
WILLISTON      CLEAR     63  59  87 N8        30.02S                  
MINOT          CLEAR     63  59  87 NW6       30.00R                  
MINOT AFB      CLEAR     62  60  91 N5        29.99F                  
$$
 
NDZ018>021-031>035-040>046-261200-
SOUTHWEST NORTH DAKOTA
  
CITY           SKY/WX    TMP DP  RH WIND       PRES   REMARKS
BISMARCK       CLEAR     70  68  93 NE7       29.95S                  
DICKINSON      PTCLDY    62  61  96 NE7       29.98F FOG              
GARRISON         N/A     61  61 100 NE3       29.99F                  
HETTINGER ARPT CLEAR     68  64  87 NE10      30.00S                  
$$
 
NDZ004>008-012>016-024-026-027-054-261200-
NORTHEAST NORTH DAKOTA
  
CITY           SKY/WX    TMP DP  RH WIND       PRES   REMARKS
GRAND FORKS    PTCLDY    65  62  90 N6        29.92S                  
GRND FRKS AFB  CLEAR     64  64  99 N5        29.94S                  
DEVILS LAKE    PTCLDY    63  62  97 N6        29.99S                  
$$
 
NDZ022-023-025-028>030-036>039-047>053-261200-
SOUTHEAST NORTH DAKOTA
  
CITY           SKY/WX    TMP DP  RH WIND       PRES   REMARKS
FARGO          CLOUDY    69  62  78 SW8       29.92R                  
JAMESTOWN      CLOUDY    69  68  96 W5        29.97R                  
$$ 

  


978 
ASUS43 KBIS 261102
RWRBIS

NWR BROADCAST TEXT
NATIONAL WEATHER SERVICE BISMARCK ND
600 AM CDT TUE JUL 26 2016

NOTE: "FAIR" INDICATES FEW OR NO CLOUDS BELOW 12,000 FEET WITH NO
SIGNIFICANT WEATHER AND/OR OBSTRUCTIONS TO VISIBILITY.

  
CITY           SKY/WX    TMP DP  RH WIND       PRES   REMARKS
WILLISTON      CLEAR     63  59  87 N8        30.02S                  
MINOT          CLEAR     63  59  87 NW6       30.00R                  
MINOT AFB      CLEAR     62  60  91 N5        29.99F                  
BISMARCK       CLEAR     70  68  93 NE7       29.95S                  
DICKINSON      PTCLDY    62  61  96 NE7       29.98F FOG              
GARRISON         N/A     61  61 100 NE3       29.99F                  
HETTINGER ARPT CLEAR     68  64  87 NE10      30.00S                  
JAMESTOWN      CLOUDY    69  68  96 W5        29.97R                  
CARRINGTON     FAIR      64  63  94 CALM      30.00R                  
HAZEN          FAIR      64  64 100 NE3       30.00S                  
OAKES            N/A    N/A N/A N/A MISG        N/A                   
STANLEY        FAIR      63  63 100 NE7       30.04F                  
$$
  
CITY           SKY/WX    TMP DP  RH WIND       PRES   REMARKS
GRAND FORKS    PTCLDY    65  62  90 N6        29.92S                  
GRAND FORKS AF CLEAR     64  64  99 N5        29.94S                  
DEVILS LAKE    PTCLDY    63  62  97 N6        29.99S                  
FARGO          CLOUDY    69  62  78 SW8       29.92R                  
CAVALIER       FAIR      63  63 100 CALM      29.95S                  
GRAFTON        FAIR      64  64 100 N7        29.96S                  
GWINNER        FAIR      70  63  78 S12       29.98F                  
LANGDON        FAIR      59  59 100 CALM      29.99S                  
ROLLA          FAIR      59  59 100 NW8       30.03R                  
$$
  
CITY           SKY/WX    TMP DP  RH WIND       PRES   REMARKS
ABERDEEN       CLOUDY    65  59  81 NE7       30.01R                  
MOBRIDGE       CLEAR     75  62  64 S12       29.92S                  
RAPID CITY     PTCLDY    67  60  78 SE7       29.99F                  
GLASGOW        PTCLDY    64  61  90 E10       30.02F                  
SIDNEY         CLOUDY    67  60  78 W9        30.04R                  
WOLF POINT     CLOUDY    66  62  87 E3        30.05R                  
GLENDIVE       TSTM      67  61  81 NW13      30.09R                  
MILES CITY     LGT RAIN  67  59  75 E22G35    29.95F                  
BAKER          CLOUDY    70  62  76 NW7       30.09R                  
$$
  
CITY           SKY/WX    TMP DP  RH WIND       PRES   REMARKS
BILLINGS       PTCLDY    64  51  62 SW14      30.06F                  
GREAT FALLS    CLEAR     54  48  80 W5        30.08S                  
$$

  

Return to Home page


Western Regional Climate Center, wrcc@dri.edu